Volver al catálogo

FENGYUN 1C DEB

ActivoPO
NORAD 36263·DEBRIS·🇨🇳 China

Lanzado May 10, 1999 desde Taiyuan Satellite Launch Center

Loading…

Próximos Pases (próximas 24 horas)

TLE

ActualizadoSource: Space-Track

Época: Sep 11, 2026, 04:10 UTC

1 36263U 99025DWQ 26254.17405646  .00003161  00000-0  84714-3 0  9995
2 36263  98.9797 157.1396 0033946 166.7010 193.5084 14.48629395919267

Sigue FENGYUN 1C DEB en tiempo real con AllMySat

Download on the App Store